Overview Statistics Trail Chart Weather Telemetry Raw packets
 

This is the latest recevied weather packets stored in our database for station/object DK6GC-10. If no packets are shown the sender has not sent any weather packets the latest 10 day(s).

<< 13 14 15 16 17 18 19 >>
Time Temp. Humidity Pressure Rain* Wind** Luminosity Snow
1788376517 17.78° C 76% 1022.8 hPa - - - -
1788375617 17.78° C 72% 1022.6 hPa - - - -
1788374717 18.33° C 74% 1022.4 hPa - - - -
1788373816 18.89° C 66% 1022.3 hPa - - - -
1788372916 18.89° C 72% 1022.2 hPa - - - -
1788372020 20° C 66% 1022 hPa - - - -
1788371119 20.56° C 66% 1021.8 hPa - - - -
1788370219 21.67° C 64% 1021.8 hPa - - - -
1788369328 22.78° C 61% 1021.7 hPa - - - -
1788368419 22.78° C 54% 1021.7 hPa - - - -
1788367519 23.33° C 56% 1021.7 hPa - - - -
1788366618 25° C 47% 1021.7 hPa - - - -
1788365718 25.56° C 47% 1021.8 hPa - - - -
1788364818 25.56° C 43% 1021.8 hPa - - - -
1788363918 25.56° C 46% 1021.9 hPa - - - -
1788363018 25° C 46% 1021.8 hPa - - - -
1788362118 25° C 51% 1021.9 hPa - - - -
1788361217 25° C 49% 1021.9 hPa - - - -
1788360317 25.56° C 46% 1021.9 hPa - - - -
1788359417 26.11° C 46% 1022 hPa - - - -
1788358517 26.67° C 46% 1021.8 hPa - - - -
1788357617 25.56° C 47% 1022 hPa - - - -
1788356716 26.11° C 47% 1021.9 hPa - - - -
1788355816 25° C 48% 1022 hPa - - - -
1788354916 26.11° C 45% 1022.2 hPa - - - -

* Rain since midnight (hover to see other rain measurements)
** Current wind speed in m/s (hover to see current wind gust speed)